This demonstration page uses our WeatherBlox Daily Observations layout. Learn more.

Left ArrowRight Arrow

Hourly Observations for October 19, 2021

Temp ( °F °C ) Dew Point ( °F °C ) Humidity (%) Winds ( mph kmh ) Pressure ( in mb ) Visibility ( mi km ) Precip ( " mm )
12:53 am 00:53 Clear 45 7.2 41 5 86 86 N N/A 30.02 1017 10 16 N/A
1:53 am 01:53 Clear 43 6.1 41 5 93 93 NNW 5 7 30.02 1017 10 16 N/A
2:53 am 02:53 Clear 43 6.1 40 4.4 89 89 N N/A 30.01 1016 10 16 N/A
3:53 am 03:53 Clear 41 5 39 3.9 93 93 undefined N/A 30.00 1016 10 16 N/A
4:53 am 04:53 Clear 40 4.4 38 3.3 93 93 undefined N/A 29.99 1016 10 16 N/A
5:53 am 05:53 Clear 40 4.4 38 3.3 93 93 N N/A 30.00 1016 10 16 N/A
6:53 am 06:53 Clear 39 3.9 37 2.8 93 93 N N/A 30.01 1016 10 16 N/A
7:53 am 07:53 Sunny 40 4.4 38 3.3 93 93 N N/A 30.01 1016 10 16 N/A
8:53 am 08:53 Sunny 44 6.7 41 5 89 89 N N/A 30.03 1017 10 16 N/A
9:53 am 09:53 Sunny 47 8.3 42 5.6 83 83 N N/A 30.03 1017 10 16 N/A
10:53 am 10:53 Sunny 52 11.1 42 5.6 69 69 N N/A 30.02 1017 10 16 N/A
11:53 am 11:53 Sunny 54 12.2 43 6.1 67 67 S 5 7 30.01 1016 10 16 N/A
12:53 pm 12:53 Sunny 58 14.4 42 5.6 56 56 N N/A 29.99 1016 10 16 N/A
1:53 pm 13:53 Sunny 60 15.6 43 6.1 53 53 SSE 7 11 29.97 1015 10 16 N/A
2:53 pm 14:53 Sunny 62 16.7 41 5 46 46 S 15 24 29.94 1014 10 16 N/A
3:53 pm 15:53 Sunny 62 16.7 41 5 46 46 S 12 19 29.91 1013 10 16 N/A
4:53 pm 16:53 Sunny 62 16.7 38 3.3 41 41 S 13 20 29.88 1012 10 16 N/A
5:53 pm 17:53 Sunny 61 16.1 39 3.9 44 44 SSW 7 11 29.87 1012 9 14 N/A
6:53 pm 18:53 Cloudy 60 15.6 41 5 50 50 N N/A 29.88 1012 10 16 N/A
7:53 pm 19:53 Cloudy 59 15 42 5.6 54 54 N N/A 29.87 1012 10 16 N/A
8:53 pm 20:53 Cloudy 58 14.4 43 6.1 58 58 N N/A 29.87 1012 10 16 N/A
9:53 pm 21:53 Cloudy with Rain 55 12.8 47 8.3 74 74 SW 7 11 29.89 1012 5 8 0.03 0.76
10:53 pm 22:53 Cloudy with Light Rain 52 11.1 49 9.4 89 89 W 6 9 29.91 1013 7 11 0.07 1.78
11:53 pm 23:53 Cloudy with Light Rain 52 11.1 49 9.4 89 89 N N/A 29.93 1013 5 8 0.09 2.29

Powered by AerisWeather